Theta_e
348 345 346 342 342 347 350 350 351 352 351 351 351 351 350 352 351 349 349 359 355 351 347 347 348 348 347 348 350 350 350 351 350 349 348 349 348 348 348 347 348 348 348
351 345 345 341 342 347 351 352 357 356 355 353 353 354 352 351 351 351 349 352 352 347 346 347 346 346 342 343 344 345 347 346 345 345 346 346 346 346 346 346 345 345 346
352 350 346 344 350 356 356 358 357 356 353 351 352 351 351 349 350 350 351 349 350 349 347 342 338 333 336 338 340 341 338 336 336 336 336 336 336 338 343 345 345 344 343
354 356 354 355 357 357 357 355 354 351 350 349 347 348 348 350 349 350 353 349 346 343 343 337 335 335 333 336 335 332 330 331 330 330 331 332 333 333 336 337 341 343 344
354 356 354 355 358 355 352 349 345 346 344 345 344 347 347 345 350 344 346 347 338 332 327 330 332 335 333 330 330 327 326 327 326 326 327 327 328 329 331 333 335 336 340
356 358 358 359 354 349 345 346 347 348 347 346 342 341 347 347 347 342 342 340 332 326 326 329 328 326 333 328 326 326 326 326 325 326 326 324 324 324 327 329 331 332 334
358 360 353 351 347 345 347 348 346 346 343 344 339 336 337 347 344 329 337 331 327 325 326 326 326 326 325 328 329 324 325 326 324 324 325 323 323 324 323 324 326 328 329
351 351 352 349 349 346 345 344 343 339 339 339 329 327 322 327 329 327 325 325 326 325 324 326 325 327 326 323 325 326 323 323 323 323 322 321 321 322 323 323 323 324 326
349 349 347 344 345 345 339 337 335 333 325 328 333 320 314 312 317 322 326 323 329 323 324 325 325 324 325 322 322 321 320 319 321 322 320 319 319 321 321 321 322 322 323
342 342 341 339 337 333 333 329 328 329 328 321 321 322 325 322 315 312 320 323 324 325 328 323 324 323 323 320 322 321 317 317 319 318 318 318 319 319 320 320 322 321 321
335 333 333 332 331 328 329 329 328 328 324 321 319 318 323 319 322 316 312 315 318 320 322 322 322 320 323 321 319 318 319 316 315 316 316 317 318 318 318 319 321 320 320
329 330 328 328 328 327 327 326 327 326 325 323 321 321 318 316 316 316 313 316 314 318 319 322 321 320 321 319 318 318 318 316 314 313 314 315 315 316 318 318 319 319 319
327 327 327 326 324 326 325 326 326 324 323 323 324 321 321 320 319 318 315 313 312 315 315 319 320 320 319 318 318 318 317 316 314 313 312 312 314 314 314 315 316 316 316
325 327 325 325 324 324 325 325 322 322 325 324 325 324 322 321 320 318 316 313 309 311 314 320 320 319 319 317 318 319 317 316 314 313 312 311 312 312 313 313 314 314 313
324 324 323 323 323 323 324 324 322 324 325 325 325 325 322 321 321 320 318 316 312 309 310 315 314 322 319 317 318 319 319 317 316 313 312 312 313 313 312 312 312 311 312
323 322 321 321 321 321 322 324 324 324 325 323 323 324 323 322 322 321 320 319 318 314 309 315 315 320 321 317 317 318 318 316 315 314 313 313 312 311 311 311 312 310 313
322 320 320 320 320 321 322 323 323 323 323 323 324 322 322 324 321 321 321 320 318 316 312 314 317 319 322 317 318 320 317 314 314 313 314 313 312 310 311 312 311 311 312
321 320 320 320 321 322 322 322 321 322 322 321 321 321 321 320 322 323 319 323 321 321 315 315 319 316 318 318 320 318 316 312 313 313 313 313 311 310 310 311 310 311 310
320 320 321 320 320 320 321 322 322 321 321 321 321 321 320 319 317 316 316 317 317 317 318 314 313 315 315 318 317 316 314 311 313 315 313 313 311 311 311 311 310 309 308
320 321 321 321 321 321 321 321 321 322 321 321 321 321 320 316 314 312 311 314 315 316 317 314 313 312 314 317 313 310 308 310 312 313 315 313 311 312 312 312 311 311 308
320 321 321 321 320 317 312 315 322 322 321 321 321 320 319 313 312 310 308 310 313 314 313 311 311 308 309 309 306 308 307 308 312 313 311 312 311 312 314 313 312 311 307
320 321 320 320 318 311 300 302 309 322 321 320 319 318 316 313 311 307 307 307 309 311 311 308 307 306 308 310 310 308 307 306 305 315 309 311 313 313 312 310 308 306 305
321 320 320 319 317 312 298 299 302 321 320 319 318 315 310 308 307 304 306 307 312 308 307 310 308 309 309 311 310 308 308 309 308 312 308 307 310 309 312 312 307 306 304
319 318 317 318 316 307 297 297 299 316 320 319 317 314 310 307 301 299 306 314 315 313 315 314 316 315 316 315 312 314 314 312 313 311 309 302 309 306 309 310 307 306 304
318 317 317 316 317 310 296 296 301 320 318 317 315 309 306 305 294 294 307 310 311 313 310 309 305 303 301 300 302 312 311 309 306 306 309 305 306 305 307 307 309 306 305
317 317 316 316 306 311 294 295 296 314 314 313 314 304 296 297 294 294 304 307 306 308 308 312 316 316 311 314 307 317 316 307 309 304 307 302 305 304 301 307 309 308 308
Wind_Speed
3 3 1 4 3 2 2 4 6 6 7 9 9 12 12 11 12 9 8 3 8 6 5 7 10 14 15 16 16 16 16 15 14 16 18 17 17 17 16 15 15 16 17
4 3 5 4 1 2 2 5 6 6 8 10 10 12 13 12 10 12 10 7 8 6 5 13 13 14 16 17 17 19 19 21 20 19 18 18 18 16 15 16 16 17 18
4 4 3 3 2 1 5 4 6 4 4 3 8 11 10 15 14 8 6 6 4 11 11 12 13 15 14 16 18 22 22 21 22 22 22 22 22 23 22 18 18 17 16
5 5 5 2 1 2 3 4 4 5 6 7 4 7 9 11 9 10 1 8 6 5 6 12 16 16 12 14 17 19 22 22 24 24 23 22 22 23 22 22 22 19 18
7 5 3 3 4 2 3 3 3 5 6 7 7 8 9 9 4 9 7 6 8 10 9 15 16 14 10 14 13 19 20 21 23 23 23 24 24 24 23 21 21 22 22
7 6 3 2 3 2 5 5 6 5 6 8 8 8 9 8 6 6 7 8 11 11 9 10 9 10 14 17 12 19 19 19 24 26 25 24 24 23 24 23 22 22 21
2 1 2 1 5 5 6 6 7 5 5 7 8 10 10 6 7 7 8 7 10 10 9 8 7 7 8 16 12 18 19 22 27 28 25 24 25 25 24 24 24 24 23
7 5 6 3 5 5 7 6 7 6 6 8 7 8 6 6 8 8 7 7 11 8 9 9 9 10 9 10 12 17 21 25 28 27 25 25 26 25 24 24 23 24 24
6 5 7 7 4 3 6 7 8 10 6 7 9 6 6 6 10 7 9 7 8 8 7 8 9 11 11 11 14 15 24 27 28 26 26 26 26 25 25 25 24 23 23
8 8 8 8 7 6 7 7 7 5 7 8 5 5 3 4 5 7 9 9 9 7 7 8 9 11 11 11 16 19 26 27 26 26 26 27 27 27 25 25 24 24 24
9 9 10 9 8 6 8 8 8 9 9 6 6 5 5 3 5 7 9 10 10 9 8 8 9 9 12 11 12 15 24 24 25 26 27 25 26 26 26 26 25 23 25
7 8 8 7 6 6 7 7 8 11 8 8 6 6 6 6 6 8 9 10 11 10 10 8 11 9 11 12 16 22 21 20 23 25 24 24 26 26 26 26 26 25 26
7 7 7 7 6 8 8 9 8 9 9 8 8 6 5 6 6 7 7 9 10 9 10 10 11 10 12 12 13 20 22 17 18 18 21 22 25 26 26 26 26 26 25
7 7 7 7 9 9 9 6 7 7 7 7 9 7 6 5 6 6 7 9 10 10 11 12 11 11 11 11 15 21 13 17 13 13 16 18 22 24 24 25 25 25 23
8 8 9 9 10 9 7 6 6 7 6 6 6 7 7 6 5 6 6 5 6 11 11 11 11 12 11 11 13 16 14 18 18 9 14 17 20 22 25 24 24 22 21
8 9 9 8 8 7 6 4 5 6 6 6 6 6 7 7 6 6 6 7 8 10 10 11 12 11 10 10 14 15 15 18 19 19 13 16 16 18 22 22 21 20 21
8 8 8 7 7 6 6 5 5 5 7 6 6 6 7 7 8 8 9 8 9 10 11 11 11 11 12 11 12 14 14 16 13 15 15 15 15 20 21 20 18 18 21
8 7 7 6 6 6 5 5 6 6 7 7 6 7 8 8 10 10 10 9 9 8 9 12 10 11 11 13 12 15 12 13 13 13 11 10 11 16 18 18 15 16 20
8 7 7 6 7 7 6 6 6 6 6 6 6 8 9 10 11 11 12 11 11 10 10 10 11 10 12 11 13 13 13 11 12 16 14 8 8 10 12 14 15 17 20
8 7 7 7 7 7 6 6 6 6 5 6 6 7 6 9 11 11 11 12 11 12 11 10 10 11 10 13 12 12 13 10 11 11 16 12 7 9 6 9 18 19 21
6 7 7 8 7 8 8 10 5 6 6 7 7 8 9 6 4 8 9 11 12 11 10 11 11 10 11 11 13 11 12 12 13 9 12 12 11 7 8 10 20 21 22
6 7 7 8 8 8 10 10 10 6 6 8 8 9 11 2 13 15 15 18 15 11 10 8 7 9 12 10 10 10 9 9 9 9 12 13 11 10 9 9 19 19 21
6 7 7 8 9 8 11 11 11 4 5 7 8 8 10 10 13 13 14 19 9 9 10 7 9 8 9 9 8 10 11 11 10 9 11 10 10 11 9 7 19 20 18
7 7 7 7 9 8 9 11 11 8 4 5 5 7 8 11 12 13 12 11 10 5 6 8 7 9 8 8 8 11 9 9 10 7 8 5 10 11 8 7 15 21 18
7 7 7 5 8 8 9 12 13 6 5 5 5 8 9 10 11 15 11 11 12 11 12 11 15 13 15 13 12 8 10 10 7 7 6 6 8 10 6 7 8 16 15
6 7 7 6 4 8 8 11 13 6 5 6 5 10 15 10 10 13 11 11 10 11 13 14 9 2 5 7 5 10 9 7 9 3 7 8 8 8 6 4 9 11 10
Wind_Direction
190 220 89 280 352 328 320 334 295 352 310 294 334 342 322 319 320 306 312 138 109 96 47 27 6 346 340 344 341 336 333 328 323 314 302 292 289 282 272 274 267 254 257
153 205 201 224 221 277 323 270 8 346 347 350 338 342 326 307 307 315 318 340 103 64 31 41 24 9 1 353 349 352 353 3 1 354 345 330 321 303 288 274 269 269 268
163 281 210 218 141 272 267 325 315 309 263 46 347 318 327 325 327 329 6 343 147 103 68 45 24 2 350 353 357 8 3 2 359 354 354 350 349 346 343 309 280 272 273
179 209 197 105 69 275 278 288 303 344 332 352 33 322 315 301 326 319 71 30 20 38 105 47 23 341 349 1 0 356 348 353 349 345 343 341 342 340 338 334 333 308 274
170 219 192 171 224 260 330 340 354 329 325 347 327 339 326 320 358 31 359 79 45 11 350 2 4 322 29 7 11 0 352 352 348 343 342 340 337 333 330 328 327 325 320
183 212 186 218 262 281 335 349 309 325 327 356 360 332 301 284 52 24 342 21 37 357 1 359 337 348 6 358 13 359 344 350 345 339 336 336 334 330 323 322 323 323 321
127 110 98 29 352 330 352 327 315 347 16 13 355 350 310 110 106 354 27 19 29 350 1 354 352 343 347 340 3 348 350 349 341 336 335 336 330 328 328 325 318 317 318
38 56 4 5 359 342 37 11 358 354 31 49 13 323 343 326 22 347 14 10 16 343 7 354 2 340 358 338 354 347 8 350 337 331 334 334 329 325 324 324 320 316 313
61 50 46 36 32 337 59 34 16 27 22 45 29 6 337 3 323 11 15 15 343 349 3 336 10 348 4 348 350 344 360 346 333 332 330 329 325 326 325 324 323 319 314
77 77 75 70 54 54 41 45 34 17 18 36 8 17 18 13 354 330 339 357 2 332 24 334 7 347 360 345 347 4 352 337 336 335 330 329 330 327 325 326 325 330 321
74 66 65 61 50 50 63 46 41 31 53 19 35 13 19 6 32 335 324 342 357 347 4 357 3 353 356 357 345 5 347 348 345 340 331 333 330 327 325 324 324 328 325
93 71 74 73 58 66 55 57 50 52 46 41 12 26 25 17 358 344 333 343 341 333 7 17 353 354 356 352 345 356 344 349 342 339 339 334 330 328 326 324 323 324 320
100 82 81 54 69 62 60 52 54 59 54 48 32 10 34 22 351 350 335 340 336 327 354 14 346 5 357 349 342 338 340 342 342 337 334 331 330 330 330 327 324 322 319
101 107 90 78 65 59 58 51 61 60 50 60 41 30 340 20 0 356 345 350 346 350 343 354 346 10 358 355 325 327 330 322 323 323 318 324 329 329 330 326 323 321 319
116 87 75 65 62 61 60 76 62 61 51 40 62 24 352 7 2 3 355 354 322 323 340 346 347 7 356 356 327 335 333 330 338 309 310 319 328 329 329 325 325 326 322
86 77 73 71 70 65 57 28 96 62 58 36 40 25 4 11 345 360 334 340 328 343 327 347 331 4 351 348 335 333 334 344 345 345 318 342 335 342 340 337 338 337 329
94 85 83 79 79 73 69 76 79 66 65 57 34 28 19 2 358 5 333 1 337 350 330 333 326 350 351 332 342 342 353 351 332 331 341 330 341 347 340 338 339 326 326
93 92 85 78 79 82 82 76 56 60 53 47 38 18 22 7 358 360 336 349 334 329 311 323 338 348 345 318 346 353 351 336 322 338 319 323 354 347 339 347 348 341 337
94 83 82 85 86 93 96 83 75 67 60 49 28 16 15 9 3 352 340 335 336 332 327 328 338 345 327 7 344 350 352 340 325 342 348 338 344 326 329 349 359 353 346
100 97 91 90 90 88 82 77 71 68 52 54 26 8 12 11 4 349 336 327 339 326 339 342 339 347 336 360 350 347 343 343 332 339 346 332 279 321 343 349 9 1 349
97 100 102 95 83 61 30 358 32 53 38 30 17 8 13 52 350 2 336 330 322 335 336 347 342 334 340 342 346 337 338 333 341 343 342 343 345 4 355 20 7 4 353
102 102 101 95 78 64 3 0 352 24 33 26 11 11 346 59 9 359 335 317 290 288 328 340 332 327 331 332 333 332 329 339 340 352 349 339 357 358 20 20 4 4 0
99 95 92 89 81 74 7 351 351 343 22 24 18 13 353 4 20 347 337 307 309 214 237 301 303 314 318 325 321 326 338 334 327 5 355 336 355 347 358 7 19 6 4
109 97 95 98 90 65 5 348 333 290 31 22 18 31 360 358 16 344 328 347 340 160 329 303 295 292 313 328 316 330 320 332 329 8 12 311 336 341 346 0 19 4 7
115 115 109 98 88 63 13 351 331 303 38 343 31 53 23 13 356 332 337 360 348 357 327 277 261 267 276 282 269 329 349 346 338 341 3 328 342 336 333 344 360 3 5
124 114 106 95 75 83 34 3 356 2 19 342 76 123 72 33 331 319 343 2 351 343 322 308 301 335 280 25 283 349 353 351 6 331 6 336 341 349 327 340 355 9 1